Hourly Weather Otole

Today, 4 August, Wednesday

Time Temperature Precipitation Wind Pressure Humidity
00:00 +14°C° 0 mm 1 mps 747 mmHg 80%
01:00 +13°C° 0 mm 1 mps 747 mmHg 80%
02:00 +13°C° 0 mm 1 mps 747 mmHg 81%
03:00 +12°C° 0 mm 0 mps 747 mmHg 81%
04:00 +12°C° 0 mm 0 mps 747 mmHg 82%
05:00 +13°C° 0 mm 0 mps 747 mmHg 76%
06:00 +15°C° 0 mm 0 mps 747 mmHg 71%
07:00 +16°C° 0 mm 0 mps 747 mmHg 66%
08:00 +19°C° 0.1 mm 1 mps 747 mmHg 66%
09:00 +19°C° 0.1 mm 1 mps 747 mmHg 66%
10:00 +19°C° 0.1 mm 2 mps 748 mmHg 66%
11:00 +19°C° 0.3 mm 2 mps 747 mmHg 67%
12:00 +19°C° 0.3 mm 2 mps 747 mmHg 68%
13:00 +19°C° 0.3 mm 2 mps 747 mmHg 70%
14:00 +19°C° 0.3 mm 2 mps 747 mmHg 70%
15:00 +19°C° 0.3 mm 2 mps 747 mmHg 71%
16:00 +19°C° 0.3 mm 2 mps 747 mmHg 71%
17:00 +18°C° 0.2 mm 2 mps 747 mmHg 76%
18:00 +18°C° 0.2 mm 1 mps 747 mmHg 82%
19:00 +16°C° 0.2 mm 1 mps 746 mmHg 87%
20:00 +15°C° 0 mm 1 mps 747 mmHg 90%
21:00 +15°C° 0 mm 1 mps 747 mmHg 92%
22:00 +14°C° 0 mm 1 mps 747 mmHg 95%
23:00 +14°C° 0 mm 1 mps 747 mmHg 95%

Tomorrow, 5 August, Thursday

Time Temperature Precipitation Wind Pressure Humidity
00:00 +13°C° 0 mm 1 mps 747 mmHg 95%
01:00 +12°C° 0 mm 0 mps 746 mmHg 96%
02:00 +12°C° 0 mm 0 mps 746 mmHg 96%
03:00 +13°C° 0 mm 1 mps 746 mmHg 96%
04:00 +12°C° 0 mm 1 mps 746 mmHg 96%
05:00 +14°C° 0 mm 1 mps 746 mmHg 91%
06:00 +15°C° 0 mm 1 mps 746 mmHg 85%
07:00 +18°C° 0 mm 1 mps 746 mmHg 80%
08:00 +18°C° 0 mm 2 mps 746 mmHg 72%
09:00 +20°C° 0 mm 2 mps 746 mmHg 65%
10:00 +21°C° 0 mm 3 mps 746 mmHg 57%
11:00 +22°C° 0 mm 3 mps 745 mmHg 54%
12:00 +24°C° 0 mm 3 mps 745 mmHg 51%
13:00 +25°C° 0 mm 3 mps 745 mmHg 48%
14:00 +24°C° 0 mm 3 mps 744 mmHg 54%
15:00 +22°C° 0 mm 3 mps 744 mmHg 59%
16:00 +21°C° 0 mm 2 mps 744 mmHg 65%
17:00 +20°C° 0.1 mm 2 mps 744 mmHg 69%
18:00 +19°C° 0.1 mm 2 mps 744 mmHg 72%
19:00 +18°C° 0.1 mm 3 mps 743 mmHg 75%
20:00 +18°C° 0 mm 3 mps 743 mmHg 78%
21:00 +17°C° 0 mm 3 mps 743 mmHg 81%
22:00 +16°C° 0 mm 3 mps 743 mmHg 84%
23:00 +16°C° 0 mm 3 mps 743 mmHg 87%

Day after tomorrow, 6 August, Friday

Time Temperature Precipitation Wind Pressure Humidity
00:00 +14°C° 0 mm 3 mps 743 mmHg 90%
01:00 +14°C° 0 mm 3 mps 742 mmHg 93%
02:00 +13°C° 0 mm 3 mps 742 mmHg 93%
03:00 +13°C° 0 mm 3 mps 742 mmHg 92%
04:00 +12°C° 0 mm 3 mps 742 mmHg 92%
05:00 +13°C° 0 mm 4 mps 742 mmHg 87%
06:00 +14°C° 0 mm 4 mps 742 mmHg 83%
07:00 +15°C° 0 mm 5 mps 742 mmHg 78%
08:00 +17°C° 0 mm 4 mps 742 mmHg 73%
09:00 +18°C° 0 mm 4 mps 742 mmHg 68%
10:00 +19°C° 0 mm 4 mps 742 mmHg 62%
11:00 +20°C° 0 mm 4 mps 742 mmHg 61%
12:00 +21°C° 0 mm 4 mps 742 mmHg 59%
13:00 +21°C° 0 mm 4 mps 742 mmHg 58%
14:00 +21°C° 0 mm 3 mps 742 mmHg 62%
15:00 +20°C° 0 mm 3 mps 742 mmHg 66%
16:00 +20°C° 0 mm 3 mps 742 mmHg 70%
17:00 +19°C° 0.1 mm 2 mps 742 mmHg 77%
18:00 +18°C° 0.1 mm 2 mps 742 mmHg 83%
19:00 +17°C° 0.1 mm 2 mps 742 mmHg 90%
20:00 +16°C° 0 mm 1 mps 742 mmHg 91%
21:00 +16°C° 0 mm 1 mps 743 mmHg 92%
22:00 +15°C° 0 mm 1 mps 743 mmHg 94%
23:00 +15°C° 0 mm 1 mps 743 mmHg 93%

7 August, Saturday

Time Temperature Precipitation Wind Pressure Humidity
00:00 +15°C° 0 mm 1 mps 743 mmHg 93%
01:00 +15°C° 0 mm 1 mps 743 mmHg 93%
02:00 +15°C° 0 mm 1 mps 743 mmHg 93%
03:00 +15°C° 0 mm 1 mps 743 mmHg 93%
04:00 +15°C° 0 mm 1 mps 743 mmHg 93%
05:00 +16°C° 0 mm 2 mps 743 mmHg 87%
06:00 +17°C° 0 mm 2 mps 743 mmHg 82%
07:00 +18°C° 0 mm 2 mps 743 mmHg 77%
08:00 +19°C° 0 mm 2 mps 743 mmHg 69%
09:00 +21°C° 0 mm 2 mps 743 mmHg 61%
10:00 +23°C° 0 mm 2 mps 744 mmHg 53%
11:00 +24°C° 0 mm 3 mps 743 mmHg 50%
12:00 +25°C° 0 mm 3 mps 743 mmHg 46%
13:00 +25°C° 0 mm 3 mps 743 mmHg 42%
14:00 +25°C° 0 mm 3 mps 743 mmHg 43%
15:00 +25°C° 0 mm 3 mps 743 mmHg 43%
16:00 +25°C° 0 mm 3 mps 744 mmHg 43%
17:00 +22°C° 0 mm 3 mps 744 mmHg 51%
18:00 +20°C° 0 mm 2 mps 744 mmHg 60%
19:00 +18°C° 0 mm 2 mps 744 mmHg 69%
20:00 +17°C° 0 mm 2 mps 744 mmHg 71%
21:00 +16°C° 0 mm 1 mps 744 mmHg 72%
22:00 +15°C° 0 mm 1 mps 745 mmHg 74%
23:00 +15°C° 0 mm 1 mps 745 mmHg 75%

8 August, Sunday

Time Temperature Precipitation Wind Pressure Humidity
00:00 +15°C° 0 mm 1 mps 745 mmHg 75%
01:00 +15°C° 0 mm 1 mps 745 mmHg 76%
02:00 +15°C° 0 mm 2 mps 745 mmHg 77%
03:00 +15°C° 0 mm 2 mps 745 mmHg 77%
04:00 +15°C° 0 mm 2 mps 745 mmHg 78%
05:00 +16°C° 0 mm 2 mps 745 mmHg 73%
06:00 +18°C° 0 mm 3 mps 745 mmHg 67%
07:00 +20°C° 0 mm 3 mps 745 mmHg 62%
08:00 +21°C° 0 mm 3 mps 745 mmHg 60%
09:00 +22°C° 0 mm 3 mps 745 mmHg 58%
10:00 +25°C° 0 mm 3 mps 745 mmHg 55%
11:00 +24°C° 0 mm 3 mps 745 mmHg 59%
12:00 +24°C° 0 mm 2 mps 746 mmHg 62%
13:00 +24°C° 0 mm 2 mps 746 mmHg 65%
14:00 +23°C° 0 mm 2 mps 746 mmHg 70%
15:00 +21°C° 0 mm 2 mps 746 mmHg 75%
16:00 +20°C° 0 mm 2 mps 747 mmHg 80%
17:00 +21°C° 0 mm 1 mps 747 mmHg 83%
18:00 +20°C° 0 mm 1 mps 747 mmHg 87%
19:00 +19°C° 0 mm 1 mps 747 mmHg 90%
20:00 +19°C° 0 mm 1 mps 748 mmHg 91%
21:00 +18°C° 0 mm 1 mps 748 mmHg 93%
22:00 +18°C° 0 mm 1 mps 748 mmHg 94%
23:00 +16°C° 0 mm 1 mps 748 mmHg 93%

9 August, Monday

Time Temperature Precipitation Wind Pressure Humidity
00:00 +16°C° 0 mm 1 mps 748 mmHg 93%
01:00 +16°C° 0 mm 1 mps 748 mmHg 92%
02:00 +16°C° 0 mm 1 mps 748 mmHg 92%
03:00 +16°C° 0 mm 1 mps 748 mmHg 91%
04:00 +16°C° 0 mm 1 mps 748 mmHg 91%
05:00 +17°C° 0 mm 2 mps 749 mmHg 86%
06:00 +18°C° 0 mm 2 mps 749 mmHg 82%
07:00 +19°C° 0 mm 2 mps 749 mmHg 77%
08:00 +20°C° 0.1 mm 3 mps 749 mmHg 70%
09:00 +21°C° 0.1 mm 3 mps 749 mmHg 63%
10:00 +22°C° 0.1 mm 3 mps 750 mmHg 56%
11:00 +25°C° 0 mm 3 mps 750 mmHg 51%
12:00 +26°C° 0 mm 3 mps 749 mmHg 47%
13:00 +27°C° 0 mm 3 mps 749 mmHg 42%
14:00 +26°C° 0 mm 3 mps 749 mmHg 44%
15:00 +26°C° 0 mm 3 mps 749 mmHg 47%
16:00 +25°C° 0 mm 2 mps 749 mmHg 50%
17:00 +23°C° 0.2 mm 2 mps 750 mmHg 60%
18:00 +20°C° 0.2 mm 2 mps 750 mmHg 70%
19:00 +18°C° 0.2 mm 2 mps 750 mmHg 80%
20:00 +17°C° 0.1 mm 2 mps 750 mmHg 83%
21:00 +16°C° 0.1 mm 1 mps 750 mmHg 85%
22:00 +16°C° 0.1 mm 1 mps 750 mmHg 88%
23:00 +16°C° 0.1 mm 1 mps 750 mmHg 88%
Show more